TimeCST,TemperatureF,Dew PointF,Humidity,Sea Level PressureIn,VisibilityMPH,Wind Direction,Wind SpeedMPH,Gust SpeedMPH,PrecipitationIn,Events,Conditions,WindDirDegrees,DateUTC
12:53 AM,28.9,15.1,56,30.52,10.0,South,12.7,-,N/A,,Clear,190,2013-11-13 06:53:00
1:53 AM,30.0,16.0,56,30.49,10.0,SSW,12.7,24.2,N/A,,Clear,200,2013-11-13 07:53:00
2:53 AM,30.0,17.1,59,30.46,10.0,SSW,16.1,-,N/A,,Clear,200,2013-11-13 08:53:00
3:53 AM,28.9,18.0,64,30.43,10.0,SSW,13.8,21.9,N/A,,Clear,200,2013-11-13 09:53:00
4:53 AM,28.9,19.0,67,30.40,10.0,SSW,15.0,23.0,N/A,,Clear,200,2013-11-13 10:53:00
5:53 AM,28.9,19.0,67,30.39,10.0,SSW,12.7,-,N/A,,Clear,200,2013-11-13 11:53:00
6:53 AM,28.9,21.0,72,30.37,10.0,SSW,11.5,-,N/A,,Clear,210,2013-11-13 12:53:00
7:53 AM,30.0,21.0,69,30.36,10.0,SSW,11.5,-,N/A,,Clear,200,2013-11-13 13:53:00
8:53 AM,33.1,21.9,64,30.35,10.0,SSW,11.5,-,N/A,,Clear,200,2013-11-13 14:53:00
9:53 AM,39.0,25.0,57,30.30,10.0,SSW,18.4,25.3,N/A,,Clear,200,2013-11-13 15:53:00
10:53 AM,46.0,28.0,50,30.26,10.0,SSW,19.6,26.5,N/A,,Clear,210,2013-11-13 16:53:00
11:53 AM,52.0,30.0,43,30.22,10.0,SSW,17.3,24.2,N/A,,Clear,200,2013-11-13 17:53:00
12:53 PM,55.0,32.0,42,30.16,10.0,SSW,20.7,27.6,N/A,,Clear,200,2013-11-13 18:53:00
1:53 PM,57.0,32.0,39,30.12,10.0,SSW,17.3,27.6,N/A,,Clear,200,2013-11-13 19:53:00
2:53 PM,57.9,32.0,37,30.08,10.0,South,19.6,29.9,N/A,,Clear,190,2013-11-13 20:53:00
3:53 PM,57.9,33.1,39,30.06,10.0,SSW,12.7,28.8,N/A,,Clear,200,2013-11-13 21:53:00
4:53 PM,55.9,34.0,44,30.04,10.0,SSW,13.8,-,N/A,,Clear,200,2013-11-13 22:53:00
5:53 PM,53.1,36.0,52,30.04,10.0,SSW,10.4,-,N/A,,Clear,210,2013-11-13 23:53:00
6:53 PM,48.9,36.0,61,30.05,10.0,SSW,5.8,-,N/A,,Clear,200,2013-11-14 00:53:00
7:53 PM,48.9,37.0,64,30.04,10.0,SSW,11.5,-,N/A,,Clear,200,2013-11-14 01:53:00
8:53 PM,48.9,37.0,64,30.02,10.0,South,13.8,-,N/A,,Clear,190,2013-11-14 02:53:00
9:53 PM,48.0,36.0,63,30.00,10.0,SSW,13.8,-,N/A,,Clear,200,2013-11-14 03:53:00
10:53 PM,46.9,35.1,63,29.98,10.0,SSW,13.8,-,N/A,,Clear,200,2013-11-14 04:53:00
11:53 PM,45.0,33.1,63,29.95,10.0,SSW,13.8,-,N/A,,Clear,200,2013-11-14 05:53:00